[Date Prev][Date Next][Thread Prev][Thread Next] - [Date Index][Thread Index][Author Index]

2 Line ISS Keps 9-22



ISS
1 25544U 98067A   05264.99795728  .00020676  00000-0  15094-3 0  4025
2 25544 051.6423 125.1533 0001950 078.5387 076.2685 15.73229632390912
----
Via the sarex mailing list at AMSAT.ORG courtesy of AMSAT-NA.
To unsubscribe, send "unsubscribe sarex" to Majordomo@amsat.org



AMSAT Top AMSAT Home